TimeEDT,TemperatureF,Dew PointF,Humidity,Sea Level PressureIn,VisibilityMPH,Wind Direction,Wind SpeedMPH,Gust SpeedMPH,PrecipitationIn,Events,Conditions,WindDirDegrees,DateUTC
12:52 AM,70.0,62.1,76,29.83,10.0,South,19.6,33.4,0.00,Rain,Light Rain,190,2013-11-01 04:52:00
1:33 AM,69.8,64.4,83,29.85,10.0,SSW,13.8,24.2,0.00,Rain,Light Rain,210,2013-11-01 05:33:00
1:52 AM,69.1,64.0,84,29.81,10.0,South,16.1,26.5,0.00,Rain,Light Rain,190,2013-11-01 05:52:00
2:52 AM,68.0,64.9,90,29.80,10.0,South,15.0,-,0.00,,Overcast,190,2013-11-01 06:52:00
3:52 AM,69.1,64.9,87,29.78,10.0,SSW,15.0,20.7,N/A,,Overcast,200,2013-11-01 07:52:00
4:52 AM,69.1,64.9,87,29.76,10.0,SSW,11.5,-,N/A,,Overcast,200,2013-11-01 08:52:00
5:23 AM,69.8,64.4,83,29.79,10.0,SSW,16.1,21.9,N/A,,Overcast,210,2013-11-01 09:23:00
5:52 AM,70.0,64.9,84,29.78,10.0,WSW,12.7,26.5,N/A,,Overcast,240,2013-11-01 09:52:00
5:59 AM,69.8,64.4,83,29.80,2.0,SW,10.4,26.5,0.01,Rain,Heavy Rain,220,2013-11-01 09:59:00
6:04 AM,69.8,66.2,88,29.80,4.0,SW,10.4,19.6,0.03,Rain,Light Rain,220,2013-11-01 10:04:00
6:17 AM,68.0,64.4,88,29.83,2.0,WNW,19.6,25.3,0.07,Rain,Rain,300,2013-11-01 10:17:00
6:27 AM,64.4,62.6,94,29.83,3.0,West,11.5,24.2,0.17,Rain,Heavy Rain,280,2013-11-01 10:27:00
6:36 AM,64.4,62.6,94,29.82,3.0,WNW,9.2,-,0.21,Rain,Rain,290,2013-11-01 10:36:00
6:49 AM,64.4,62.6,94,29.82,2.5,WNW,9.2,-,0.25,Rain,Heavy Rain,300,2013-11-01 10:49:00
6:52 AM,64.0,62.1,93,29.81,2.5,WNW,8.1,-,0.27,Rain,Rain,290,2013-11-01 10:52:00
7:01 AM,64.4,62.6,94,29.83,2.0,West,6.9,-,0.04,Rain,Rain,280,2013-11-01 11:01:00
7:19 AM,62.6,62.6,100,29.84,3.0,West,6.9,-,0.09,Rain,Light Rain,270,2013-11-01 11:19:00
7:52 AM,63.0,62.1,97,29.83,3.0,WNW,5.8,-,0.12,Rain,Light Rain,290,2013-11-01 11:52:00
8:19 AM,62.6,60.8,94,29.85,3.0,NW,8.1,-,0.01,Rain,Light Rain,310,2013-11-01 12:19:00
8:52 AM,63.0,61.0,93,29.84,3.0,West,3.5,-,0.05,Rain,Light Rain,270,2013-11-01 12:52:00
9:23 AM,62.6,60.8,94,29.86,8.0,Calm,Calm,-,0.00,Rain,Light Rain,0,2013-11-01 13:23:00
9:52 AM,63.0,62.1,97,29.84,9.0,SW,3.5,-,0.00,,Overcast,220,2013-11-01 13:52:00
10:52 AM,64.9,62.1,90,29.83,10.0,West,5.8,-,N/A,,Overcast,280,2013-11-01 14:52:00
11:37 AM,64.4,62.6,94,29.85,10.0,WSW,4.6,-,N/A,,Overcast,250,2013-11-01 15:37:00
11:52 AM,64.9,61.0,87,29.83,10.0,West,4.6,-,N/A,,Overcast,270,2013-11-01 15:52:00
12:52 PM,68.0,61.0,78,29.81,10.0,Variable,4.6,-,N/A,,Mostly Cloudy,0,2013-11-01 16:52:00
1:52 PM,72.0,59.0,64,29.76,10.0,WNW,4.6,-,N/A,,Scattered Clouds,290,2013-11-01 17:52:00
2:52 PM,73.9,57.9,57,29.74,10.0,West,9.2,-,N/A,,Scattered Clouds,260,2013-11-01 18:52:00
3:52 PM,75.0,55.0,50,29.72,10.0,West,10.4,20.7,N/A,,Scattered Clouds,260,2013-11-01 19:52:00
4:52 PM,73.9,55.0,52,29.72,10.0,WSW,10.4,-,N/A,,Partly Cloudy,240,2013-11-01 20:52:00
5:52 PM,73.0,54.0,51,29.72,10.0,West,6.9,-,N/A,,Partly Cloudy,260,2013-11-01 21:52:00
6:52 PM,68.0,48.0,49,29.75,10.0,West,6.9,-,N/A,,Partly Cloudy,270,2013-11-01 22:52:00
7:52 PM,64.0,48.9,58,29.77,10.0,WNW,8.1,-,N/A,,Partly Cloudy,290,2013-11-01 23:52:00
8:52 PM,63.0,50.0,63,29.79,10.0,WNW,5.8,-,N/A,,Clear,290,2013-11-02 00:52:00
9:52 PM,60.1,50.0,69,29.81,10.0,WNW,5.8,-,N/A,,Clear,290,2013-11-02 01:52:00
10:52 PM,59.0,50.0,72,29.83,10.0,NW,9.2,-,N/A,,Clear,310,2013-11-02 02:52:00
11:52 PM,57.9,48.0,70,29.83,10.0,WNW,9.2,-,N/A,,Clear,300,2013-11-02 03:52:00